Home   Weather   Boké   Past weeks

Flag for Guinea Past Weather in Boké, Guinea — Yesterday and Last 2 Weeks

84 °F

Partly sunny.

Feels Like: 92 °F
Forecast: 73 / 92 °F
Wind: 5 mph from South

Location: Conakry / Gbessia

Current Time: Oct 21, 2016 at 1:06:48 PM

Latest Report: Oct 21, 2016 at 12:00 PM

Visibility: N/A

Pressure: 29.89 "Hg

Humidity: 74%

Dew Point: 75 °F

Location of BokéLocation

Past Weather in Boké — Graph


Boké Temperature Yesterday

Maximum temperature yesterday: 90 °F (at 3:00 PM)
Minimum temperature yesterday: 75 °F (at 4:00 AM)
Average temperature yesterday: 81 °F

High & Low Weather Summary for the Past Weeks

High90 °F (Oct 6, 2:00 PM)100% (Oct 6, 6:00 PM)29.95 "Hg (Oct 6, 6:00 PM)
Low72 °F (Oct 7, 11:00 PM)59% (Oct 20, 4:00 PM)29.74 "Hg (Oct 6, 6:00 PM)
Average81 °F84%29.87 "Hg
* Reported Oct 6 12:00 PM — Oct 21 12:00 PM, Boké, Weather by CustomWeather, © 2016

Note: Actual official high and low records may vary slightly from our data, if they occured in-between our weather recording intervals... More about our weather records


Boké Weather History for the Previous 24 Hours

Scroll right to see more
Time TempWeatherWind HumidityBarometerVisibility
12:00 PM
Fri, Oct 21
84 °FPartly sunny.5 mph74%29.89 "HgN/A
11:00 AM84 °FPartly sunny.5 mph74%29.92 "HgN/A
10:00 AM84 °FPartly sunny.No wind74%29.92 "HgN/A
9:00 AM79 °FPartly sunny.No wind89%29.92 "HgN/A
8:00 AM77 °FPartly sunny.No wind89%29.89 "HgN/A
7:00 AM75 °FBroken clouds.No wind94%29.86 "HgN/A
6:00 AM75 °FLight rain. Passing clouds.No wind94%29.86 "Hg5 mi
5:00 AM75 °FLight rain. Passing clouds.5 mph94%29.86 "Hg5 mi
4:00 AM75 °FLight rain. Passing clouds.No wind94%29.86 "Hg5 mi
3:00 AM75 °FThunderstorms. Passing clouds.2 mph94%29.86 "HgN/A
2:00 AM77 °FThunderstorms. Passing clouds.7 mph89%29.89 "HgN/A
1:00 AM79 °FThunderstorms. Passing clouds.9 mph89%29.92 "HgN/A
12:00 AM79 °FThunderstorms. Passing clouds.5 mph84%29.89 "HgN/A
11:00 PM
Thu, Oct 20
79 °FPartly cloudy.7 mph84%29.89 "HgN/A
10:00 PM79 °FPartly cloudy.No wind89%29.89 "HgN/A
9:00 PM79 °FPartly cloudy.No wind89%29.89 "HgN/A
8:00 PM79 °FPassing clouds.No wind89%29.83 "HgN/A
7:00 PM79 °FThunderstorms. Passing clouds.No wind79%29.83 "HgN/A
6:00 PM79 °FThunderstorms. Partly sunny.5 mph79%29.80 "Hg5 mi
5:00 PM82 °FBroken clouds.23 mph74%29.83 "HgN/A
4:00 PM90 °FThunderstorms. Scattered clouds.9 mph59%29.80 "HgN/A
3:00 PM90 °FScattered clouds.5 mph63%29.80 "HgN/A
2:00 PM88 °FScattered clouds.7 mph66%29.80 "HgN/A
1:00 PM88 °FScattered clouds.7 mph66%29.83 "HgN/A
Weather by CustomWeather, © 2016

See weather overviewHow to use our weather pages